Location: Peterborough
(44.3091°N, 78.3197°W)
Time: 06:35:22
(UTC-04:00)

Vanguard 2 - Pass Details

Date: 29 March 2023
Orbit: 552 x 2926 km, 32.9° (Epoch: 04 June)

Event Time Altitude Azimuth Distance (km) Brightness Sun altitude
Rises 03:24:37 0° 200° (SSW) 6,248 - -34.6°
Reaches altitude 10° 03:29:46 10° 188° (S) 5,487 - -34.0°
Exits shadow 03:35:37 20° 169° (S) 4,865 11.2 -33.3°
Maximum altitude 03:42:00 25° 142° (SE) 4,614 11.3 -32.5°
Drops below altitude 10° 03:54:12 10° 97° (E) 5,523 12.3 -31.0°
Sets 03:59:18 0° 85° (E) 6,302 12.9 -30.3°
